Wind_Speed
8 10 12 14 16 16 17 19 18 17 14 11 8 7 7 8 7 8 9 11 13 13 13 14 14 13 13 12 11 10 9 8 7 6 7 6 5 5 6 10 8 7 4 6 10 9 9
11 11 12 13 14 15 17 18 19 19 18 16 11 8 8 8 10 11 10 10 12 14 15 14 14 14 14 13 13 11 11 10 10 9 8 7 7 7 7 9 11 8 6 6 4 13 12
11 12 13 13 14 15 15 16 17 18 19 18 16 13 10 10 12 11 11 9 10 10 11 10 10 11 11 13 13 12 12 11 11 11 10 9 9 9 10 9 12 11 6 5 9 18 17
12 13 13 14 14 15 15 17 18 20 20 19 17 15 12 10 12 13 13 12 13 13 10 10 9 8 8 8 9 10 11 13 13 14 13 11 11 12 11 14 14 13 11 8 14 10 18
12 13 14 14 16 16 17 18 19 21 21 20 18 15 13 12 12 13 12 12 13 13 10 9 8 7 7 8 9 10 9 10 12 13 13 11 11 13 14 12 9 9 11 15 13 15 9
13 13 13 15 15 16 17 17 19 21 22 20 18 17 14 13 14 11 11 13 14 11 9 8 9 7 6 6 8 9 9 10 13 13 14 12 11 14 14 11 15 16 3 26 18 12 11
13 14 15 15 16 16 16 18 20 22 23 21 19 18 16 15 14 14 13 11 9 7 6 5 4 2 5 6 7 9 10 13 14 13 13 11 13 13 10 17 24 26 11 28 21 16 14
13 15 15 16 16 17 17 18 20 22 23 22 19 19 16 14 13 14 11 8 7 6 4 2 4 3 2 4 6 8 9 11 12 14 15 14 13 10 26 26 24 28 25 24 24 23 20
13 14 15 15 15 16 18 19 20 21 22 22 20 18 15 14 13 13 9 7 6 5 3 5 5 3 3 4 5 7 9 10 11 13 14 13 9 22 21 21 21 20 17 11 24 16 14
13 14 14 14 15 16 16 18 19 21 22 22 20 18 15 13 13 12 10 8 7 6 4 8 7 5 5 5 5 6 8 9 10 12 13 14 23 19 18 19 15 10 20 19 16 17 12
15 16 16 16 16 16 17 17 18 19 21 22 21 18 16 13 13 11 9 7 5 6 6 8 6 6 6 6 6 6 6 8 10 10 10 11 21 16 19 17 17 21 21 17 14 16 17
19 19 18 18 18 17 17 17 17 18 19 21 21 19 16 13 12 11 9 8 6 8 6 5 4 5 5 6 6 5 4 7 9 9 12 18 12 18 17 24 23 19 19 11 14 8 12
21 21 21 21 20 20 19 18 18 18 19 20 21 18 17 14 12 10 9 7 6 4 8 7 6 5 3 7 6 4 1 5 6 2 9 15 12 14 19 16 20 19 14 7 11 10 14
23 23 23 23 23 22 22 22 20 19 19 19 20 19 15 16 13 11 10 10 7 7 6 5 3 3 2 5 3 3 2 1 6 12 6 5 14 12 15 16 11 18 15 16 12 11 13
27 27 27 26 26 26 25 24 23 22 21 20 19 18 16 14 15 13 11 9 9 9 8 6 3 1 7 5 5 3 1 8 10 12 10 6 10 16 15 18 23 12 21 17 14 8 15
32 31 30 30 29 29 28 28 27 25 23 21 20 19 17 14 14 14 12 10 11 11 10 8 3 5 4 7 4 3 7 12 5 11 17 10 12 12 14 18 18 29 29 19 22 14 9
35 35 34 33 32 31 31 30 29 29 27 24 22 20 18 16 14 15 14 15 14 11 12 12 9 8 8 8 5 6 9 15 9 9 13 15 12 21 15 14 11 19 19 13 15 21 20
41 40 39 38 37 35 34 32 31 31 30 28 25 24 20 18 16 15 16 16 15 14 13 14 13 11 10 10 6 6 6 13 8 9 6 10 16 11 13 20 31 26 27 24 25 24 29
48 46 45 45 44 43 41 38 36 33 31 30 27 27 24 21 19 17 19 18 17 16 16 15 16 13 12 13 12 12 15 13 9 10 11 10 11 9 19 10 10 15 17 17 29 27 30
40 41 41 43 43 43 45 46 41 38 35 32 30 28 29 25 23 21 20 19 20 19 18 17 18 15 14 15 15 17 15 18 12 12 8 11 10 10 27 23 26 21 22 16 22 12 19
36 35 35 32 35 36 38 37 38 41 40 37 35 31 34 28 27 26 25 25 21 21 21 20 19 16 16 16 13 15 18 19 19 16 10 13 13 12 19 19 18 14 23 16 18 20 18
38 35 32 32 33 34 32 36 35 30 38 42 40 37 35 33 32 29 29 26 25 21 22 21 18 16 17 18 20 22 20 21 20 18 14 14 13 16 15 17 17 21 16 19 21 22 27
40 34 34 33 35 35 35 36 34 34 37 34 38 40 38 35 34 33 30 28 27 25 23 25 17 20 17 19 23 21 20 21 21 22 20 19 16 13 12 16 18 20 20 24 22 30 27
39 35 34 34 36 36 37 35 35 35 33 35 36 39 37 34 36 34 33 29 27 26 28 26 24 23 26 20 21 20 21 21 22 21 20 21 21 19 16 16 16 17 25 25 30 28 36
35 35 37 36 38 36 37 33 32 30 28 29 33 35 41 37 37 39 35 35 31 33 28 28 23 24 25 21 19 16 15 18 20 21 18 21 19 20 17 15 16 18 23 22 34 33 36
37 34 37 39 36 35 33 31 30 26 24 27 31 31 32 36 36 41 36 32 32 30 28 30 33 25 25 20 12 13 5 14 15 15 16 18 19 20 17 15 16 16 33 31 23 24 28
32 33 35 33 32 29 26 24 24 23 22 22 28 32 28 29 36 37 36 37 36 32 28 29 28 28 25 21 14 11 14 26 18 14 14 14 21 20 18 20 17 30 35 25 25 24 26
30 31 31 30 28 24 24 24 22 20 18 18 18 20 24 26 27 25 27 27 30 28 28 26 30 31 26 25 17 17 21 19 20 17 19 19 20 18 19 24 25 34 36 34 32 31 32
26 28 29 29 26 24 24 22 21 20 17 17 15 14 17 22 25 26 25 25 27 33 35 35 29 29 26 22 18 17 23 24 20 17 20 21 23 25 24 25 31 32 30 30 29 30 32
Wind_Direction
65 84 70 59 45 35 32 28 25 24 19 6 359 346 341 336 323 294 280 281 284 290 293 293 288 282 274 270 269 261 259 263 255 248 244 237 236 238 194 193 213 217 208 192 210 205 189
84 76 62 47 37 31 27 25 24 22 18 12 355 328 309 304 309 314 307 298 287 285 285 280 279 275 273 272 264 264 265 259 261 254 249 240 236 228 228 210 208 229 217 219 230 190 170
66 57 45 34 29 28 22 21 19 16 11 5 1 352 328 295 303 311 313 315 319 305 291 279 274 270 267 260 261 254 249 252 249 251 249 243 233 231 237 238 227 235 239 255 246 221 170
55 46 37 30 25 19 18 17 16 13 8 4 2 358 347 327 314 313 312 311 314 315 302 294 287 273 266 257 253 247 238 236 237 241 245 234 229 226 228 209 241 230 249 234 272 249 200
45 38 31 27 25 20 18 15 12 7 7 8 6 2 349 335 324 318 325 320 310 309 303 295 287 277 267 265 258 250 243 244 243 242 243 234 228 233 226 224 277 285 261 274 271 283 259
36 32 28 26 24 17 13 9 4 7 7 6 8 4 356 347 345 343 338 333 328 318 304 298 283 281 279 262 255 247 241 242 248 249 247 240 220 225 228 217 225 222 198 263 256 273 263
27 22 17 16 14 15 13 13 10 8 6 4 3 1 353 345 348 355 345 331 327 315 305 288 280 287 291 259 242 241 237 235 237 242 244 237 219 210 219 220 211 213 267 240 251 270 268
14 11 9 6 9 12 13 13 9 6 6 4 359 357 351 344 354 359 349 353 352 337 320 15 342 330 303 259 247 243 241 238 235 237 241 238 232 212 223 221 225 222 236 257 252 266 276
356 358 356 356 358 4 7 8 4 2 5 5 359 356 356 353 350 351 358 358 2 352 44 23 14 339 316 280 257 251 246 241 238 234 231 226 246 224 231 228 226 242 242 236 242 254 287
331 335 338 343 345 350 358 360 360 359 2 6 2 356 352 346 349 352 355 359 360 354 16 25 2 341 334 296 271 271 258 238 229 226 224 212 238 243 219 225 236 228 243 255 240 244 283
313 316 321 327 331 337 343 349 350 354 357 2 3 356 350 341 345 350 353 360 360 6 89 352 358 338 321 317 319 296 273 234 221 220 212 233 241 225 223 228 235 231 244 241 232 251 255
305 307 308 311 314 318 325 331 337 342 349 355 359 358 349 346 341 342 350 356 356 343 293 342 357 358 330 348 335 319 268 240 218 220 219 215 250 231 214 238 230 216 233 225 228 264 264
302 303 303 302 301 303 308 313 321 327 335 343 348 356 348 339 334 337 336 342 335 17 320 336 358 358 17 343 343 357 49 236 216 246 288 259 258 237 235 238 234 230 229 226 243 256 265
303 301 300 299 297 296 297 300 303 311 317 326 334 342 345 340 325 322 325 321 322 296 295 311 304 316 161 343 335 330 64 261 228 192 186 283 282 258 238 224 228 244 207 206 218 254 260
297 297 297 297 295 294 293 292 292 296 301 310 316 326 333 333 328 316 315 317 290 295 289 273 281 97 295 335 317 316 264 200 227 200 200 223 242 258 247 222 220 221 224 193 266 245 230
294 294 293 293 292 292 291 289 288 288 290 295 300 307 317 318 317 314 307 298 295 292 283 262 202 241 207 260 348 46 274 278 262 236 205 219 223 271 266 239 227 228 202 202 225 242 208
292 292 292 291 291 290 290 289 288 286 285 285 287 290 295 299 303 300 296 290 291 285 277 262 241 232 233 251 235 237 239 280 261 277 228 202 216 257 208 247 216 240 262 225 208 236 221
287 286 286 287 287 286 285 284 283 282 281 280 279 277 280 284 286 287 285 288 290 283 271 264 260 245 229 248 249 234 228 266 283 274 219 247 212 250 248 212 226 219 212 194 204 223 236
283 283 284 284 283 283 283 281 279 276 275 274 271 270 269 270 274 274 272 278 279 277 275 267 263 258 256 244 243 244 253 275 276 263 248 235 206 244 286 245 299 289 229 271 199 214 226
290 288 286 285 284 284 280 276 273 271 269 267 263 262 264 262 263 263 262 268 275 270 266 269 264 266 260 252 249 246 261 273 267 262 268 257 211 244 276 234 227 209 194 280 241 284 285
293 291 289 286 291 289 286 282 277 267 266 264 260 255 257 261 256 255 254 261 261 261 264 262 261 258 256 251 250 257 252 250 270 265 254 250 246 230 282 255 250 239 213 205 238 242 268
290 290 292 292 297 294 289 285 279 276 266 261 257 254 252 252 254 254 252 254 258 251 256 258 256 258 255 252 249 242 249 250 253 264 243 242 256 242 256 243 258 255 263 256 250 226 234
287 288 290 292 297 293 293 292 293 278 265 265 258 252 248 245 249 250 251 255 251 247 239 245 244 249 253 256 267 266 264 260 258 255 255 251 238 243 258 262 245 258 251 248 235 244 241
285 286 290 288 294 290 291 290 291 288 274 262 255 248 245 241 241 242 243 244 249 243 242 244 243 246 243 271 271 268 263 262 257 254 253 256 249 247 249 232 258 263 258 237 246 235 226
279 288 291 290 292 289 290 281 291 288 279 259 251 246 241 237 238 238 238 241 245 244 243 241 240 238 251 268 268 270 265 258 253 250 248 252 249 245 250 259 260 254 274 260 245 240 238
281 280 287 290 288 286 281 280 282 285 279 261 254 247 245 242 239 238 241 245 245 248 241 237 240 247 245 257 264 261 237 236 243 262 251 251 246 245 249 249 255 247 251 252 265 265 253
282 282 287 286 285 279 279 282 280 280 280 274 259 249 249 244 244 236 238 237 235 238 227 246 240 240 244 235 229 240 237 255 249 261 265 253 242 245 255 264 264 256 260 266 264 256 244
277 282 283 280 278 273 277 279 276 280 275 272 266 255 252 242 244 240 243 238 232 225 227 230 240 234 239 228 219 237 234 262 258 253 260 258 254 253 266 263 248 256 269 264 257 260 255
274 280 281 276 272 270 269 273 275 269 270 268 270 262 256 252 247 243 241 234 226 227 237 227 229 238 226 233 231 232 243 258 266 259 249 248 252 251 240 239 255 264 271 271 263 258 254
Height
5902 5902 5901 5900 5898 5897 5895 5892 5890 5887 5885 5883 5881 5880 5879 5877 5876 5875 5874 5874 5873 5873 5873 5872 5872 5872 5873 5874 5874 5875 5876 5878 5879 5880 5881 5883 5885 5886 5886 5889 5889 5890 5890 5890 5890 5891 5894
5904 5904 5902 5901 5899 5897 5895 5893 5890 5888 5885 5883 5880 5879 5878 5876 5875 5874 5873 5872 5871 5871 5870 5870 5870 5869 5869 5871 5872 5873 5874 5876 5877 5878 5880 5882 5883 5885 5886 5887 5888 5888 5890 5890 5889 5890 5892
5906 5905 5903 5902 5900 5898 5896 5894 5891 5888 5885 5883 5880 5878 5876 5875 5873 5872 5871 5870 5869 5868 5867 5867 5867 5866 5867 5868 5868 5869 5871 5872 5874 5875 5877 5880 5881 5883 5884 5887 5887 5888 5888 5889 5889 5890 5891
5907 5906 5904 5903 5900 5898 5896 5894 5892 5889 5886 5882 5879 5877 5875 5873 5872 5870 5869 5867 5866 5865 5865 5864 5864 5864 5864 5865 5865 5865 5867 5868 5870 5871 5874 5877 5879 5880 5883 5886 5886 5888 5888 5888 5886 5885 5888
5908 5907 5905 5903 5901 5899 5896 5894 5891 5888 5885 5882 5879 5876 5874 5872 5870 5869 5867 5866 5865 5864 5863 5862 5862 5862 5863 5863 5863 5863 5864 5865 5867 5868 5870 5874 5876 5878 5880 5883 5887 5889 5891 5886 5886 5885 5887
5909 5908 5906 5904 5902 5899 5897 5894 5891 5888 5884 5881 5878 5875 5873 5871 5869 5867 5865 5864 5862 5861 5860 5860 5860 5862 5861 5861 5860 5861 5862 5863 5864 5866 5868 5871 5874 5875 5878 5882 5886 5887 5886 5885 5885 5886 5887
5910 5908 5906 5904 5902 5899 5897 5894 5891 5887 5884 5881 5878 5875 5872 5870 5868 5866 5864 5863 5863 5861 5859 5859 5859 5859 5860 5859 5859 5859 5860 5861 5862 5864 5865 5868 5871 5873 5881 5885 5880 5884 5884 5880 5881 5883 5886
5910 5908 5906 5904 5902 5900 5897 5894 5890 5887 5884 5880 5877 5874 5872 5869 5868 5865 5863 5862 5860 5860 5859 5858 5857 5857 5857 5857 5857 5857 5859 5860 5860 5861 5863 5867 5868 5872 5872 5874 5876 5879 5880 5879 5881 5881 5882
5909 5908 5906 5904 5902 5899 5897 5893 5891 5887 5884 5880 5877 5874 5871 5869 5867 5865 5863 5861 5859 5859 5859 5858 5857 5856 5856 5856 5856 5856 5856 5857 5858 5859 5860 5863 5869 5867 5868 5869 5872 5876 5876 5879 5878 5879 5878
5908 5907 5905 5904 5902 5899 5896 5893 5890 5887 5883 5880 5876 5873 5871 5869 5867 5865 5862 5860 5858 5858 5857 5858 5856 5855 5855 5855 5855 5853 5853 5855 5855 5856 5858 5861 5862 5863 5864 5866 5871 5878 5874 5872 5875 5876 5877
5906 5905 5903 5901 5899 5897 5895 5892 5889 5886 5883 5879 5876 5873 5870 5867 5866 5864 5863 5860 5859 5858 5862 5859 5857 5855 5854 5854 5853 5851 5851 5851 5853 5854 5857 5862 5857 5859 5861 5864 5868 5869 5871 5872 5873 5873 5872
5903 5901 5900 5898 5896 5895 5893 5890 5888 5885 5882 5878 5875 5872 5869 5867 5865 5863 5861 5860 5859 5859 5858 5857 5856 5854 5853 5852 5850 5849 5850 5850 5852 5852 5853 5853 5854 5856 5859 5858 5861 5865 5867 5868 5870 5872 5874
5899 5897 5895 5894 5892 5891 5889 5887 5885 5883 5880 5877 5874 5871 5868 5865 5864 5862 5860 5859 5859 5860 5857 5856 5854 5853 5852 5850 5848 5848 5848 5849 5851 5852 5853 5852 5853 5854 5855 5858 5860 5862 5866 5873 5875 5875 5876
5895 5893 5891 5889 5888 5886 5884 5883 5881 5879 5877 5875 5872 5870 5867 5864 5861 5860 5858 5858 5856 5855 5854 5853 5853 5852 5854 5851 5849 5848 5848 5849 5849 5850 5857 5856 5856 5852 5853 5855 5862 5860 5867 5871 5867 5872 5873
5889 5887 5886 5884 5882 5880 5879 5877 5876 5874 5873 5871 5869 5867 5864 5862 5859 5858 5857 5855 5856 5853 5852 5851 5851 5851 5851 5848 5849 5847 5847 5851 5847 5848 5852 5856 5855 5850 5850 5852 5855 5858 5862 5862 5865 5868 5869
5882 5880 5879 5877 5875 5874 5872 5871 5870 5869 5868 5866 5865 5863 5861 5859 5857 5855 5854 5853 5852 5851 5850 5849 5848 5849 5850 5851 5848 5849 5849 5845 5845 5844 5845 5848 5850 5850 5848 5849 5853 5850 5851 5861 5865 5865 5865
5874 5873 5871 5869 5868 5866 5865 5863 5863 5862 5861 5860 5859 5858 5856 5855 5853 5852 5851 5849 5848 5848 5847 5847 5845 5844 5845 5846 5846 5849 5847 5843 5841 5841 5841 5843 5847 5847 5844 5848 5854 5855 5851 5860 5861 5863 5862
5865 5863 5861 5860 5858 5857 5855 5854 5853 5853 5853 5852 5852 5850 5850 5849 5849 5847 5846 5845 5844 5843 5843 5842 5841 5840 5840 5840 5842 5843 5843 5840 5839 5838 5838 5841 5842 5844 5839 5838 5841 5839 5847 5846 5856 5858 5856
5853 5851 5850 5848 5847 5846 5845 5845 5843 5842 5843 5843 5844 5842 5843 5843 5842 5841 5840 5840 5839 5839 5838 5837 5837 5837 5836 5836 5837 5837 5836 5835 5835 5835 5834 5835 5839 5842 5841 5839 5839 5840 5845 5847 5846 5851 5847
5840 5839 5837 5835 5834 5832 5832 5830 5832 5831 5832 5833 5834 5835 5833 5835 5835 5835 5834 5833 5833 5833 5833 5833 5832 5832 5832 5832 5831 5831 5832 5830 5831 5831 5831 5832 5834 5837 5831 5835 5837 5837 5839 5838 5845 5844 5843
5831 5829 5826 5824 5823 5820 5819 5817 5817 5818 5819 5822 5823 5824 5822 5827 5827 5827 5827 5827 5827 5827 5827 5827 5827 5827 5827 5827 5827 5826 5827 5827 5826 5827 5828 5828 5829 5834 5832 5832 5831 5835 5837 5840 5847 5850 5843
5821 5819 5816 5814 5812 5809 5807 5806 5804 5805 5805 5807 5808 5812 5813 5815 5816 5818 5818 5820 5820 5821 5821 5821 5822 5822 5821 5821 5821 5820 5820 5821 5822 5823 5824 5824 5826 5826 5828 5829 5833 5833 5833 5838 5838 5842 5843
5812 5809 5805 5802 5800 5798 5797 5795 5793 5792 5792 5793 5795 5797 5800 5804 5806 5807 5810 5810 5812 5813 5815 5815 5817 5815 5816 5814 5813 5814 5815 5816 5817 5817 5818 5819 5820 5823 5828 5827 5827 5830 5830 5833 5833 5835 5836
5799 5798 5795 5793 5790 5788 5785 5784 5782 5779 5779 5780 5782 5784 5788 5792 5793 5796 5798 5801 5803 5803 5805 5807 5808 5808 5807 5808 5808 5809 5809 5809 5810 5811 5813 5813 5814 5816 5818 5821 5823 5827 5820 5824 5824 5825 5827
5788 5786 5785 5782 5780 5777 5775 5774 5773 5769 5768 5769 5770 5771 5774 5780 5782 5784 5787 5789 5791 5792 5796 5800 5802 5801 5801 5802 5803 5803 5804 5804 5804 5805 5807 5807 5809 5811 5813 5817 5819 5820 5817 5814 5816 5817 5819
5777 5775 5773 5772 5769 5767 5765 5765 5764 5761 5760 5761 5761 5762 5763 5766 5770 5771 5777 5780 5783 5784 5788 5791 5790 5794 5795 5798 5800 5799 5804 5803 5802 5800 5802 5802 5804 5806 5808 5809 5813 5814 5803 5807 5808 5808 5810
5766 5764 5763 5761 5759 5757 5756 5757 5756 5754 5752 5752 5751 5753 5755 5756 5756 5762 5765 5768 5771 5776 5781 5782 5784 5786 5788 5791 5794 5797 5798 5794 5795 5796 5798 5798 5799 5801 5804 5803 5806 5799 5796 5801 5802 5804 5803
5754 5754 5752 5752 5752 5749 5749 5750 5748 5747 5746 5746 5745 5746 5747 5748 5749 5752 5755 5759 5763 5768 5774 5776 5777 5778 5782 5784 5788 5792 5790 5790 5789 5790 5791 5792 5793 5796 5798 5796 5798 5791 5790 5791 5790 5792 5794
5743 5744 5743 5744 5743 5741 5742 5742 5741 5741 5741 5741 5741 5740 5740 5741 5744 5745 5748 5751 5755 5757 5761 5764 5771 5772 5775 5778 5781 5783 5784 5785 5785 5785 5785 5786 5787 5788 5790 5789 5785 5783 5782 5781 5782 5783 5784